STARLINK-1104 (44922 NORAD) Tracking and Keplerian Element Data

This shows tracking and keplerian element data for the satellite.

Feedback or suggestion? Click here.




ElementValue
Catalog44922
NameSTARLINK-1104
Epoch Orbit645
Epoch Day48.58334491
Epoch Year2020
RAAN197.2642
Inclination52.998
Eccentricity0.0001556
Argument of Perigee66.8312
Mean Anonmoly121.6736
Mean Motion15.12901891
Decay Rate-0.00088181
L11 44922U 20001J 20048.58334491 -.00088181 00000-0 -49948-2 0 9999
L22 44922 52.9980 197.2642 0001556 66.8312 121.6736 15.12901891 6458

Live tracking and technical data element details for STARLINK-1104 (NORAD 44922). STARLINK-1104 can be tracked NOW for your location showing map with azimuth and elevation plus other details from your city location.

Track the satellite on the map from your city or location and see movement details for azimuth, elevation, latitude, longitude, range, height, and movement on the map or in text.







IsCatalogInMostPopularTable: catalog: 44922, numindb: 12
Update: records affected: 1



GetName: 44922 STARLINK-1104

Hit Count: updated at: Tue, 18 Feb 2020 01:59:37 GMT